Burlington, WA

7:35 PM PDT on October 20, 2017 (GMT -0700)
Skagit Regional

Weather History for KBVS - March, 2013

Change the Weather History Date:

Tuesday, March 5, 2013

  Actual Average Record
Temperature  
Mean Temperature 47 °F -  
Max Temperature 53 °F 51 °F 62 °F (2016)
Min Temperature 41 °F 36 °F 25 °F (1976)
Degree Days  
Heating Degree Days 18    
Moisture  
Dew Point 35 °F    
Average Humidity 70    
Maximum Humidity 100    
Minimum Humidity 44    
Precipitation  
Precipitation 0.01 in - - ()
Sea Level Pressure  
Sea Level Pressure 29.84 in    
Wind  
Wind Speed 8 mph (NNE)    
Max Wind Speed 14 mph    
Max Gust Speed 18 mph    
Visibility 10 miles    
Events      
Averages and records for this station are not official NWS values.
T = Trace of Precipitation, MM = Missing Value Source: NWS Daily Summary

Daily Weather History Graph

Daily Weather History Graph

Search for Another Location

Airport or City:

Trip Planner

Search our weather history database for the weather conditions in past years. The results will help you decide how hot, cold, wet, or windy it might be!

Date:

Astronomy

Mar. 05, 2013 Rise Set
Actual Time 6:42 AM PST 6:00 PM PST
Civil Twilight 6:11 AM PST 6:31 PM PST
Nautical Twilight 5:35 AM PST 7:07 PM PST
Astronomical Twilight 4:58 AM PST 7:44 PM PST
Moon 2:21 AM PST (3/5) 11:23 AM PST (3/5)
Length of Visible Light 12h 20m
Length of Day
11h 17m
Last Quarter, 39% of the Moon is Illuminated
Mar 5
Last Quarter
Mar 11
New
Mar 19
First Quarter
Mar 27
Full
Apr 2
Last Quarter

Hourly Weather History & Observations

Time (PST) Temp. Windchill Dew Point Humidity Pressure Visibility Wind Dir Wind Speed Gust Speed Precip Events Conditions
12:35 AM 42.8 °F 38.0 °F 32.0 °F 66% 29.97 in 10.0 mi NE 8.1 mph - 0.00 in   Clear
12:55 AM 41.0 °F 35.8 °F 32.0 °F 70% 29.95 in 10.0 mi NE 8.1 mph - 0.00 in   Clear
1:15 AM 42.8 °F 36.6 °F 32.0 °F 66% 29.95 in 10.0 mi NE 11.5 mph 16.1 mph 0.00 in   Partly Cloudy
1:35 AM 42.8 °F 35.8 °F 32.0 °F 66% 29.95 in 10.0 mi NE 13.8 mph - 0.00 in   Scattered Clouds
1:55 AM 42.8 °F 36.2 °F 32.0 °F 66% 29.94 in 10.0 mi ENE 12.7 mph - 0.00 in   Partly Cloudy
2:15 AM 42.8 °F 37.5 °F 32.0 °F 66% 29.94 in 10.0 mi ENE 9.2 mph - 0.00 in   Clear
2:55 AM 42.8 °F 36.6 °F 32.0 °F 66% 29.93 in 10.0 mi ENE 11.5 mph - 0.00 in   Clear
3:15 AM 42.8 °F 37.5 °F 32.0 °F 66% 29.92 in 10.0 mi ENE 9.2 mph - 0.00 in   Clear
3:35 AM 42.8 °F 36.2 °F 32.0 °F 66% 29.91 in 10.0 mi ENE 12.7 mph 18.4 mph 0.00 in   Clear
3:55 AM 42.8 °F 37.0 °F 30.2 °F 61% 29.90 in 10.0 mi ENE 10.4 mph - 0.00 in   Clear
4:15 AM 42.8 °F 36.6 °F 30.2 °F 61% 29.89 in 10.0 mi ENE 11.5 mph - 0.00 in   Partly Cloudy
4:55 AM 42.8 °F 36.2 °F 30.2 °F 61% 29.89 in 10.0 mi ENE 12.7 mph 17.3 mph 0.00 in   Scattered Clouds
5:15 AM 42.8 °F 36.2 °F 30.2 °F 61% 29.89 in 10.0 mi ENE 12.7 mph - 0.00 in   Partly Cloudy
5:35 AM 42.8 °F 36.2 °F 30.2 °F 61% 29.87 in 10.0 mi East 12.7 mph - 0.00 in   Clear
5:55 AM 42.8 °F 37.0 °F 30.2 °F 61% 29.86 in 10.0 mi ENE 10.4 mph - 0.00 in   Partly Cloudy
6:15 AM 42.8 °F 36.2 °F 30.2 °F 61% 29.86 in 10.0 mi East 12.7 mph 16.1 mph 0.00 in   Clear
6:35 AM 42.8 °F 38.6 °F 30.2 °F 61% 29.85 in 10.0 mi NE 6.9 mph - 0.00 in   Clear
6:55 AM 42.8 °F 36.6 °F 32.0 °F 66% 29.85 in 10.0 mi ENE 11.5 mph - 0.00 in   Clear
7:15 AM 42.8 °F 37.5 °F 30.2 °F 61% 29.85 in 10.0 mi ENE 9.2 mph - 0.00 in   Clear
7:35 AM 44.6 °F 39.2 °F 30.2 °F 57% 29.85 in 10.0 mi NE 10.4 mph - 0.00 in   Clear
7:55 AM 44.6 °F 40.2 °F 30.2 °F 57% 29.86 in 10.0 mi NE 8.1 mph - 0.00 in   Clear
8:15 AM 44.6 °F 39.2 °F 30.2 °F 57% 29.86 in 10.0 mi ENE 10.4 mph - 0.00 in   Clear
8:35 AM 44.6 °F 39.7 °F 30.2 °F 57% 29.87 in 10.0 mi ENE 9.2 mph - 0.00 in   Clear
8:55 AM 44.6 °F 39.2 °F 30.2 °F 57% 29.87 in 10.0 mi ENE 10.4 mph - 0.00 in   Partly Cloudy
9:15 AM 44.6 °F 41.4 °F 30.2 °F 57% 29.88 in 10.0 mi ENE 5.8 mph - 0.00 in   Scattered Clouds
9:35 AM 46.4 °F 43.5 °F 32.0 °F 57% 29.87 in 10.0 mi ENE 5.8 mph - 0.00 in   Partly Cloudy
9:55 AM 46.4 °F 45.2 °F 32.0 °F 57% 29.88 in 10.0 mi East 3.5 mph - 0.00 in   Partly Cloudy
10:15 AM 46.4 °F 43.5 °F 33.8 °F 62% 29.87 in 10.0 mi ENE 5.8 mph - 0.00 in   Partly Cloudy
10:35 AM 46.4 °F 44.3 °F 32.0 °F 57% 29.88 in 10.0 mi SSE 4.6 mph - 0.00 in   Scattered Clouds
10:55 AM 46.4 °F - 35.6 °F 66% 29.87 in 10.0 mi Calm Calm - 0.00 in   Partly Cloudy
11:15 AM 48.2 °F - 35.6 °F 62% 29.86 in 10.0 mi Calm Calm - 0.00 in   Scattered Clouds
11:35 AM 48.2 °F - 32.0 °F 54% 29.85 in 10.0 mi NE 3.5 mph - 0.00 in   Partly Cloudy
11:55 AM 50.0 °F - 33.8 °F 54% 29.84 in 10.0 mi NE 4.6 mph - 0.00 in   Mostly Cloudy
12:15 PM 51.8 °F - 33.8 °F 50% 29.83 in 10.0 mi East 4.6 mph - 0.00 in   Mostly Cloudy
12:35 PM 51.8 °F - 32.0 °F 47% 29.82 in 10.0 mi Calm Calm - 0.00 in   Mostly Cloudy
12:55 PM 53.6 °F - 32.0 °F 44% 29.81 in 10.0 mi Calm Calm - 0.00 in   Mostly Cloudy
1:15 PM 53.6 °F - 32.0 °F 44% 29.81 in 10.0 mi Calm Calm - 0.00 in   Mostly Cloudy
1:35 PM 51.8 °F - 35.6 °F 54% 29.81 in 10.0 mi WNW 8.1 mph - 0.00 in   Mostly Cloudy
1:55 PM 50.0 °F - 33.8 °F 54% 29.80 in 10.0 mi WNW 9.2 mph - 0.00 in   Partly Cloudy
2:15 PM 50.0 °F - 33.8 °F 54% 29.80 in 10.0 mi WNW 6.9 mph - 0.00 in   Partly Cloudy
2:35 PM 48.2 °F - 33.8 °F 58% 29.80 in 10.0 mi NW 8.1 mph - 0.00 in   Mostly Cloudy
2:55 PM 48.2 °F - 35.6 °F 62% 29.79 in 10.0 mi NW 8.1 mph - 0.00 in   Overcast
3:15 PM 48.2 °F - 35.6 °F 62% 29.80 in 10.0 mi WNW 8.1 mph - 0.00 in   Overcast
3:35 PM 48.2 °F - 37.4 °F 66% 29.79 in 10.0 mi NW 6.9 mph - 0.00 in   Overcast
3:55 PM 48.2 °F - 37.4 °F 66% 29.79 in 10.0 mi NW 8.1 mph - 0.00 in   Mostly Cloudy
4:15 PM 48.2 °F - 37.4 °F 66% 29.79 in 10.0 mi NW 5.8 mph - 0.00 in   Scattered Clouds
4:35 PM 48.2 °F - 37.4 °F 66% 29.80 in 10.0 mi NW 5.8 mph - 0.00 in   Scattered Clouds
4:55 PM 48.2 °F - 35.6 °F 62% 29.80 in 10.0 mi Calm Calm - 0.00 in   Mostly Cloudy
5:15 PM 46.4 °F 45.2 °F 37.4 °F 71% 29.81 in 10.0 mi WSW 3.5 mph - 0.00 in   Overcast
5:35 PM 46.4 °F 44.3 °F 39.2 °F 76% 29.81 in 10.0 mi NW 4.6 mph - 0.00 in   Overcast
5:55 PM 46.4 °F 45.2 °F 39.2 °F 76% 29.81 in 10.0 mi WSW 3.5 mph - 0.00 in   Overcast
6:15 PM 46.4 °F - 41.0 °F 81% 29.81 in 10.0 mi Calm Calm - 0.00 in   Mostly Cloudy
6:35 PM 44.6 °F 43.1 °F 41.0 °F 87% 29.81 in 10.0 mi WNW 3.5 mph - 0.00 in   Mostly Cloudy
6:55 PM 44.6 °F 41.4 °F 42.8 °F 93% 29.81 in 8.0 mi WNW 5.8 mph - 0.00 in   Overcast
7:15 PM 44.6 °F 42.2 °F 42.8 °F 93% 29.81 in 10.0 mi WNW 4.6 mph - 0.00 in   Overcast
7:35 PM 44.6 °F 39.7 °F 42.8 °F 93% 29.81 in 9.0 mi NNW 9.2 mph - 0.00 in   Overcast
7:55 PM 42.8 °F 37.5 °F 42.8 °F 100% 29.81 in 10.0 mi NNW 9.2 mph - 0.00 in   Overcast
8:15 PM 42.8 °F 37.0 °F 42.8 °F 100% 29.80 in 10.0 mi NNW 10.4 mph - 0.00 in   Overcast
8:35 PM 42.8 °F 37.0 °F 42.8 °F 100% 29.80 in 10.0 mi NNW 10.4 mph - 0.00 in   Overcast
8:55 PM 42.8 °F 38.0 °F 42.8 °F 100% 29.80 in 9.0 mi NW 8.1 mph - 0.00 in   Overcast
9:15 PM 42.8 °F 38.0 °F 42.8 °F 100% 29.80 in 10.0 mi NW 8.1 mph - 0.00 in   Overcast
9:35 PM 42.8 °F 38.6 °F 42.8 °F 100% 29.80 in 10.0 mi NW 6.9 mph - 0.00 in   Overcast
9:55 PM 42.8 °F 38.0 °F 42.8 °F 100% 29.80 in 10.0 mi NW 8.1 mph - 0.00 in   Mostly Cloudy
10:15 PM 42.8 °F 38.0 °F 42.8 °F 100% 29.80 in 10.0 mi NNW 8.1 mph - 0.00 in   Overcast
10:55 PM 42.8 °F 38.6 °F 42.8 °F 100% 29.79 in 10.0 mi NNW 6.9 mph - 0.01 in   Mostly Cloudy
11:15 PM 42.8 °F 38.0 °F 42.8 °F 100% 29.78 in 10.0 mi NNW 8.1 mph - 0.00 in   Partly Cloudy
11:35 PM 41.0 °F 36.4 °F 41.0 °F 100% 29.77 in 10.0 mi NNW 6.9 mph - 0.00 in   Clear
11:55 PM 41.0 °F 38.0 °F 41.0 °F 100% 29.76 in 10.0 mi NNW 4.6 mph - 0.00 in   Partly Cloudy